Regional Weather Roundup
Issued by NWS New Orleans/Baton Rouge, LA

Home | Current Version | Previous Version | Text Only | Print | Product List | Glossary On
Versions: 1 2 3 4 5 6 7 8 9 10 11 12 13 14 15 16 17 18 19 20 21 22 23 24 25 26 27 28 29 30
000
ASUS44 KLIX 261011
RWRLIX
NEW ORLEANS REGIONAL WEATHER ROUNDUP
NATIONAL WEATHER SERVICE NEW ORLEANS LA
500 AM CDT FRI AUG 26 2016

NOTE: "FAIR" INDICATES FEW OR NO CLOUDS BELOW 12,000 FEET WITH NO
      SIGNIFICANT WEATHER AND/OR OBSTRUCTIONS TO VISIBILITY.
      SKY/WX - SKY CONDITION AND SIGNIFICANT WEATHER.
      TMP - AIR TEMPERATURE.     DP    - DEWPOINT TEMPERATURE.
      RH  - RELATIVE HUMIDITY.   PRES  - PRESSURE.
      HI  - HEAT INDEX.          WCI   - WIND CHILL INDEX.

*  THESE STATIONS ARE NOT NWS OR FAA STATIONS AND ARE NOT UNDER
   NWS QUALITY CONTROL.

LAZ038-040-048-061>063-065>067-069-261100-
SOUTHEAST LOUISIANA

CITY           SKY/WX    TMP DP  RH WIND       PRES   REMARKS
N.O. AUDUBON     N/A     81  78  91 MISG        N/A
N.O. INTL ARPT LGT RAIN  82  77  84 NE7       30.01R
N.O. LAKEFRONT   N/A     81  76  84 NE15      30.01R
N.O. DOWNTOWN* PTSUNNY   81  76  84 E3        30.02R
RESERVE*       PTSUNNY   78  76  94 CALM      30.02R
SLIDELL          N/A     74  73  97 N5        30.01R
BATON ROUGE      N/A     75  74  96 N3        30.02F
BOOTHVILLE       N/A     82  74  76 E6        29.99S
BELLE CHASSE   NOT AVBL
BOGALUSA*        N/A     74  71  89 CALM      30.05R
GALLIANO*        N/A    N/A N/A N/A CALM      30.00S HAZE
NEW ROADS*     CLOUDY    75  74  99 CALM      30.02F FOG
GONZALES*        N/A     74  74 100 CALM      30.01S
HAMMOND*       CLOUDY    73  72  94 NE3       30.02S
HOUMA*           N/A     76  76 100 CALM      30.01R FOG
PORT FOURCHON* CLOUDY    84  73  70 E13       29.98S

$$

MSZ070-080>082-261100-
SOUTHERN MISSISSIPPI

CITY           SKY/WX    TMP DP  RH WIND       PRES   REMARKS
MCCOMB           N/A     74  71  91 CALM      30.04S
GULFPORT         N/A     75  74  96 N6        30.01R
BILOXI           N/A     75  75 100 NE7       30.01R
PASCAGOULA       N/A     74  74 100 N5        30.01S

$$

COASTAL OBSERVATIONS
LAKE AND NEARSHORE STATIONS

STATION/POSITION TIME  TEMP    WIND        PRES    WAVE
                       AIR SEA DIR/SP/G            HT/PER
                 (UTC) (F)     (DEG/KT/KT) (MB)    (FT/S)
PASCAGOULA       0900   77     360/  9/ 12 1015.6
WAVELAND YACHT   0900   78 86   30/ 11/ 13 1015.9
GRAND ISLE       0900   85 89   90/  8/ 12 1015.6
SOUTHWEST PASS   0900           90/ 17/ 21   N/A
NEW CANAL        0900   82 87   40/ 12/ 14 1015.0
SHELL BEACH      0900   84 87   40/  8/ 12 1015.6

OFFSHORE STATIONS

STATION/POSITION TIME  TEMP    WIND        PRES    WAVE
                       AIR SEA DIR/SP/G            HT/PER
                 (UTC) (F)     (DEG/KT/KT) (MB)    (FT/S)
64 S DAUPHIN ISL 0900   86 86   80/ 14/ 17 1014.8

$$





USA.gov is the U.S. government's official web portal to all federal, state and local government web resources and services.